Weather History for Key West NAF, FL

Change the Weather History Date:

Saturday, November 12, 2011

  Actual Average Record
Temperature  
Mean Temperature 74 °F -  
Max Temperature 79 °F 79 °F 87 °F (1965)
Min Temperature 69 °F 71 °F 58 °F (1962)
Cooling Degree Days 9    
Growing Degree Days 24 (Base 50)    
Moisture  
Dew Point 62 °F    
Average Humidity 65    
Maximum Humidity 75    
Minimum Humidity 57    
Precipitation  
Precipitation 0.00 in - - ()
Sea Level Pressure  
Sea Level Pressure 30.15 in    
Wind  
Wind Speed 12 mph (NE)    
Max Wind Speed 16 mph    
Max Gust Speed 26 mph    
Visibility 10 miles    
Events      
Averages and records for this station are not official NWS values.
T = Trace of Precipitation, MM = Missing Value Source: NWS Daily Summary

Daily Weather History Graph

Daily Weather History Graph

Search for Another Location

Airport:

Trip Planner

Search our weather history database for the weather conditions in past years. The results will help you decide how hot, cold, wet, or windy it might be!

Date:

Astronomy

Nov. 12, 2011 Rise Set
Actual Time 6:40 AM EST 5:41 PM EST
Civil Twilight 6:16 AM EST 6:04 PM EST
Nautical Twilight 5:49 AM EST 6:32 PM EST
Astronomical Twilight 5:22 AM EST 6:59 PM EST
Moon 7:06 PM EST (11/12) 8:10 AM EST (11/12)
Length of Visible Light 11h 48m
Length of Day
11h 00m
Full, 97% of the Moon is Illuminated
Nov 12
Full
Nov 18
Last Quarter
Nov 25
New
Dec 2
First Quarter
Dec 10
Full

Hourly Weather History & Observations

Time (EST) Temp. Dew Point Humidity Pressure Visibility Wind Dir Wind Speed Gust Speed Precip Events Conditions
12:53 AM 69.1 °F - N/A% 30.12 in 10.0 mi NNE 10.4 mph 21.9 mph N/A   Partly Cloudy
1:53 AM 69.1 °F - N/A% 30.11 in 10.0 mi NE 16.1 mph 21.9 mph N/A   Clear
2:53 AM 69.1 °F - N/A% 30.11 in 10.0 mi NE 11.5 mph - N/A   Clear
4:53 AM 69.1 °F - N/A% 30.12 in 10.0 mi NE 12.7 mph - N/A   Clear
5:53 AM 69.1 °F - N/A% 30.13 in 10.0 mi NE 9.2 mph - N/A   Clear
6:03 AM 69.8 °F 60.8 °F 73% 30.13 in 10.0 mi NE 8.1 mph 19.6 mph N/A   Partly Cloudy
6:53 AM 69.1 °F 60.8 °F 75% 30.14 in 10.0 mi NE 10.4 mph 18.4 mph N/A   Scattered Clouds
7:53 AM 71.1 °F 60.8 °F 70% 30.15 in 10.0 mi ENE 8.1 mph 16.1 mph N/A   Partly Cloudy
8:53 AM 73.9 °F 60.8 °F 63% 30.17 in 10.0 mi NE 11.5 mph 19.6 mph N/A   Partly Cloudy
9:53 AM 75.0 °F 60.8 °F 61% 30.19 in 10.0 mi NE 13.8 mph 21.9 mph N/A   Partly Cloudy
10:53 AM 77.0 °F 62.6 °F 61% 30.19 in 10.0 mi ENE 11.5 mph 24.2 mph N/A   Clear
11:53 AM 78.1 °F 62.6 °F 59% 30.17 in 10.0 mi ENE 16.1 mph 26.5 mph N/A   Clear
12:53 PM 78.1 °F 62.6 °F 59% 30.14 in 10.0 mi ENE 15.0 mph 24.2 mph N/A   Clear
1:53 PM 79.0 °F 62.6 °F 57% 30.13 in 10.0 mi ENE 16.1 mph 24.2 mph N/A   Clear
2:53 PM 78.1 °F 62.6 °F 59% 30.13 in 10.0 mi ENE 15.0 mph 24.2 mph N/A   Partly Cloudy
3:53 PM 77.0 °F 62.6 °F 61% 30.12 in 10.0 mi ENE 13.8 mph 23.0 mph N/A   Partly Cloudy
4:53 PM 75.9 °F 64.4 °F 67% 30.13 in 10.0 mi ENE 12.7 mph 23.0 mph N/A   Partly Cloudy
5:53 PM 73.9 °F 60.8 °F 63% 30.13 in 10.0 mi ENE 11.5 mph 20.7 mph N/A   Partly Cloudy
6:53 PM 73.9 °F 62.6 °F 68% 30.15 in 10.0 mi ENE 8.1 mph 19.6 mph N/A   Clear
7:53 PM 73.0 °F 62.6 °F 70% 30.17 in 10.0 mi NE 13.8 mph 19.6 mph N/A   Scattered Clouds
8:53 PM 73.0 °F 60.8 °F 65% 30.17 in 10.0 mi NE 10.4 mph 17.3 mph N/A   Scattered Clouds
9:53 PM 72.0 °F 60.8 °F 68% 30.18 in 10.0 mi NE 10.4 mph 17.3 mph N/A   Scattered Clouds
10:53 PM 72.0 °F - N/A% 30.17 in 10.0 mi NE 9.2 mph 16.1 mph N/A   Clear
11:53 PM 72.0 °F - N/A% 30.15 in 10.0 mi NE 10.4 mph 17.3 mph N/A   Clear